Time,TemperatureF,DewpointF,PressureIn,WindDirection,WindDirectionDegrees,WindSpeedMPH,WindSpeedGustMPH,Humidity,HourlyPrecipIn,Conditions,Clouds,dailyrainin,SoftwareType,DateUTC
2013-01-17 00:03:00,60.1,17.7,30.26,North,355,3.0,8.0,19,0.00,,---,0.00,VWS V14.00,2013-01-17 08:03:00,
2013-01-17 00:08:00,59.5,17.2,30.25,North,355,5.0,5.0,19,0.00,,---,0.00,VWS V14.00,2013-01-17 08:08:00,
2013-01-17 00:14:00,58.0,17.2,30.25,North,355,4.0,8.0,20,0.00,,---,0.00,VWS V14.00,2013-01-17 08:14:00,
2013-01-17 00:19:00,56.7,17.2,30.25,North,355,4.0,6.0,21,0.00,,---,0.00,VWS V14.00,2013-01-17 08:19:00,
2013-01-17 00:24:00,56.1,16.7,30.25,North,355,3.0,6.0,21,0.00,,---,0.00,VWS V14.00,2013-01-17 08:24:00,
2013-01-17 00:29:00,56.4,17.0,30.25,North,360,6.0,17.0,21,0.00,,---,0.00,VWS V14.00,2013-01-17 08:29:00,
2013-01-17 00:34:00,57.2,17.6,30.25,North,350,3.0,5.0,21,0.00,,---,0.00,VWS V14.00,2013-01-17 08:34:00,
2013-01-17 00:39:00,57.8,18.1,30.25,North,350,4.0,6.0,21,0.00,,---,0.00,VWS V14.00,2013-01-17 08:39:00,
2013-01-17 00:44:00,57.2,17.6,30.26,North,360,7.0,7.0,21,0.00,,---,0.00,VWS V14.00,2013-01-17 08:44:00,
2013-01-17 00:49:00,56.4,17.0,30.25,North,351,6.0,8.0,21,0.00,,---,0.00,VWS V14.00,2013-01-17 08:49:00,
2013-01-17 00:54:00,57.5,17.9,30.25,NNW,348,3.0,8.0,21,0.00,,---,0.00,VWS V14.00,2013-01-17 08:54:00,
2013-01-17 00:59:00,57.9,17.1,30.26,NNW,345,9.0,12.0,20,0.00,,---,0.00,VWS V14.00,2013-01-17 08:59:00,
2013-01-17 01:04:00,58.2,17.3,30.25,NNW,346,3.0,5.0,20,0.00,,---,0.00,VWS V14.00,2013-01-17 09:04:00,
2013-01-17 01:09:00,58.1,17.3,30.25,NNW,346,3.0,10.0,20,0.00,,---,0.00,VWS V14.00,2013-01-17 09:09:00,
2013-01-17 01:14:00,58.5,17.6,30.25,NNW,346,10.0,10.0,20,0.00,,---,0.00,VWS V14.00,2013-01-17 09:14:00,
2013-01-17 01:19:00,59.1,16.9,30.25,NNW,346,2.0,9.0,19,0.00,,---,0.00,VWS V14.00,2013-01-17 09:19:00,
2013-01-17 01:24:00,58.9,16.7,30.25,NNW,346,4.0,9.0,19,0.00,,---,0.00,VWS V14.00,2013-01-17 09:24:00,
2013-01-17 01:29:00,58.3,17.4,30.25,NNW,346,2.0,8.0,20,0.00,,---,0.00,VWS V14.00,2013-01-17 09:29:00,
2013-01-17 01:34:00,58.3,17.4,30.25,North,355,9.0,14.0,20,0.00,,---,0.00,VWS V14.00,2013-01-17 09:34:00,
2013-01-17 01:39:00,59.5,17.2,30.25,North,355,10.0,14.0,19,0.00,,---,0.00,VWS V14.00,2013-01-17 09:39:00,
2013-01-17 01:44:00,60.4,16.7,30.25,North,350,8.0,21.0,18,0.00,,---,0.00,VWS V14.00,2013-01-17 09:44:00,
2013-01-17 01:49:00,60.4,16.7,30.25,North,5,13.0,22.0,18,0.00,,---,0.00,VWS V14.00,2013-01-17 09:49:00,
2013-01-17 01:54:00,60.7,17.0,30.25,North,355,9.0,18.0,18,0.00,,---,0.00,VWS V14.00,2013-01-17 09:54:00,
2013-01-17 01:59:00,59.8,17.5,30.25,North,360,8.0,15.0,19,0.00,,---,0.00,VWS V14.00,2013-01-17 09:59:00,
2013-01-17 02:04:00,59.9,17.6,30.25,North,11,14.0,19.0,19,0.00,,---,0.00,VWS V14.00,2013-01-17 10:04:00,
2013-01-17 02:09:00,60.0,17.6,30.25,NNE,14,7.0,20.0,19,0.00,,---,0.00,VWS V14.00,2013-01-17 10:09:00,
2013-01-17 02:14:00,59.4,17.1,30.25,NNE,18,4.0,25.0,19,0.00,,---,0.00,VWS V14.00,2013-01-17 10:14:00,
2013-01-17 02:19:00,59.3,17.1,30.24,NNE,13,16.0,17.0,19,0.00,,---,0.00,VWS V14.00,2013-01-17 10:19:00,
2013-01-17 02:24:00,60.0,16.4,30.24,NE,38,20.0,33.0,18,0.00,,---,0.00,VWS V14.00,2013-01-17 10:24:00,
2013-01-17 02:29:00,60.9,17.1,30.24,NE,43,14.0,29.0,18,0.00,,---,0.00,VWS V14.00,2013-01-17 10:29:00,
2013-01-17 02:34:00,60.9,17.1,30.24,NNE,30,13.0,30.0,18,0.00,,---,0.00,VWS V14.00,2013-01-17 10:34:00,
2013-01-17 02:39:00,60.8,17.0,30.24,NNE,17,18.0,28.0,18,0.00,,---,0.00,VWS V14.00,2013-01-17 10:39:00,
2013-01-17 02:44:00,60.2,16.6,30.24,NNE,15,20.0,20.0,18,0.00,,---,0.00,VWS V14.00,2013-01-17 10:44:00,
2013-01-17 02:49:00,59.6,17.3,30.24,NNE,33,8.0,13.0,19,0.00,,---,0.00,VWS V14.00,2013-01-17 10:49:00,
2013-01-17 02:54:00,59.0,16.8,30.24,NNE,28,6.0,16.0,19,0.00,,---,0.00,VWS V14.00,2013-01-17 10:54:00,
2013-01-17 02:59:00,58.5,17.6,30.24,NNE,25,11.0,14.0,20,0.00,,---,0.00,VWS V14.00,2013-01-17 10:59:00,
2013-01-17 03:04:00,58.1,17.3,30.24,NNE,25,7.0,13.0,20,0.00,,---,0.00,VWS V14.00,2013-01-17 11:04:00,
2013-01-17 03:09:00,58.1,17.3,30.24,NNE,31,10.0,21.0,20,0.00,,---,0.00,VWS V14.00,2013-01-17 11:09:00,
2013-01-17 03:14:00,59.3,17.1,30.24,NNE,24,10.0,13.0,19,0.00,,---,0.00,VWS V14.00,2013-01-17 11:14:00,
2013-01-17 03:19:00,57.8,17.0,30.24,NNE,24,5.0,8.0,20,0.00,,---,0.00,VWS V14.00,2013-01-17 11:19:00,
2013-01-17 03:24:00,56.8,18.4,30.24,NNE,24,6.0,8.0,22,0.00,,---,0.00,VWS V14.00,2013-01-17 11:24:00,
2013-01-17 03:29:00,56.3,16.9,30.24,NNE,24,5.0,6.0,21,0.00,,---,0.00,VWS V14.00,2013-01-17 11:29:00,
2013-01-17 03:34:00,55.1,17.0,30.24,NNE,24,4.0,6.0,22,0.00,,---,0.00,VWS V14.00,2013-01-17 11:34:00,
2013-01-17 03:39:00,54.3,17.3,30.24,NNE,24,4.0,5.0,23,0.00,,---,0.00,VWS V14.00,2013-01-17 11:39:00,
2013-01-17 03:44:00,55.2,17.0,30.24,NNE,24,3.0,6.0,22,0.00,,---,0.00,VWS V14.00,2013-01-17 11:44:00,
2013-01-17 03:49:00,55.0,16.9,30.24,NNE,24,7.0,8.0,22,0.00,,---,0.00,VWS V14.00,2013-01-17 11:49:00,
2013-01-17 03:54:00,55.1,17.0,30.23,NNE,24,8.0,10.0,22,0.00,,---,0.00,VWS V14.00,2013-01-17 11:54:00,
2013-01-17 03:59:00,55.7,17.5,30.24,NNE,24,6.0,10.0,22,0.00,,---,0.00,VWS V14.00,2013-01-17 11:59:00,
2013-01-17 04:04:00,55.9,16.5,30.24,NNE,24,6.0,8.0,21,0.00,,---,0.00,VWS V14.00,2013-01-17 12:04:00,
2013-01-17 04:09:00,55.9,16.5,30.24,NNE,24,6.0,9.0,21,0.00,,---,0.00,VWS V14.00,2013-01-17 12:09:00,
2013-01-17 04:14:00,55.5,16.2,30.24,NNE,24,4.0,10.0,21,0.00,,---,0.00,VWS V14.00,2013-01-17 12:14:00,
2013-01-17 04:19:00,55.2,17.0,30.24,NNE,24,4.0,10.0,22,0.00,,---,0.00,VWS V14.00,2013-01-17 12:19:00,
2013-01-17 04:24:00,55.5,16.2,30.24,NNE,25,13.0,13.0,21,0.00,,---,0.00,VWS V14.00,2013-01-17 12:24:00,
2013-01-17 04:29:00,56.0,16.6,30.24,NNE,24,5.0,9.0,21,0.00,,---,0.00,VWS V14.00,2013-01-17 12:29:00,
2013-01-17 04:34:00,55.0,15.8,30.24,NNE,24,6.0,12.0,21,0.00,,---,0.00,VWS V14.00,2013-01-17 12:34:00,
2013-01-17 04:39:00,54.8,15.6,30.24,NNE,25,6.0,10.0,21,0.00,,---,0.00,VWS V14.00,2013-01-17 12:39:00,
2013-01-17 04:44:00,55.0,16.9,30.24,NNE,25,6.0,10.0,22,0.00,,---,0.00,VWS V14.00,2013-01-17 12:44:00,
2013-01-17 04:49:00,55.1,15.9,30.24,NNE,25,4.0,12.0,21,0.00,,---,0.00,VWS V14.00,2013-01-17 12:49:00,
2013-01-17 04:54:00,54.7,16.6,30.24,NNE,25,7.0,9.0,22,0.00,,---,0.00,VWS V14.00,2013-01-17 12:54:00,
2013-01-17 04:59:00,54.6,16.5,30.24,NNE,25,6.0,10.0,22,0.00,,---,0.00,VWS V14.00,2013-01-17 12:59:00,
2013-01-17 05:04:00,55.3,17.1,30.24,NNE,25,5.0,11.0,22,0.00,,---,0.00,VWS V14.00,2013-01-17 13:04:00,
2013-01-17 05:09:00,55.5,16.2,30.24,NNE,25,4.0,12.0,21,0.00,,---,0.00,VWS V14.00,2013-01-17 13:09:00,
2013-01-17 05:14:00,55.6,16.3,30.24,NNE,25,7.0,14.0,21,0.00,,---,0.00,VWS V14.00,2013-01-17 13:14:00,
2013-01-17 05:19:00,55.9,16.5,30.24,NNE,25,4.0,10.0,21,0.00,,---,0.00,VWS V14.00,2013-01-17 13:19:00,
2013-01-17 05:24:00,55.4,16.1,30.24,NNE,25,8.0,14.0,21,0.00,,---,0.00,VWS V14.00,2013-01-17 13:24:00,
2013-01-17 05:29:00,55.7,16.4,30.24,NNE,27,10.0,18.0,21,0.00,,---,0.00,VWS V14.00,2013-01-17 13:29:00,
2013-01-17 05:34:00,56.0,15.5,30.24,NNE,28,8.0,12.0,20,0.00,,---,0.00,VWS V14.00,2013-01-17 13:34:00,
2013-01-17 05:39:00,56.0,15.5,30.24,NNE,31,12.0,14.0,20,0.00,,---,0.00,VWS V14.00,2013-01-17 13:39:00,
2013-01-17 05:44:00,56.1,15.6,30.24,NE,35,14.0,15.0,20,0.00,,---,0.00,VWS V14.00,2013-01-17 13:44:00,
2013-01-17 05:49:00,56.1,15.6,30.24,NE,37,13.0,19.0,20,0.00,,---,0.00,VWS V14.00,2013-01-17 13:49:00,
2013-01-17 05:54:00,56.0,15.5,30.24,NE,37,7.0,13.0,20,0.00,,---,0.00,VWS V14.00,2013-01-17 13:54:00,
2013-01-17 05:59:00,55.7,15.3,30.24,NE,37,7.0,12.0,20,0.00,,---,0.00,VWS V14.00,2013-01-17 13:59:00,
2013-01-17 06:04:00,56.3,15.8,30.25,NNE,22,4.0,17.0,20,0.00,,---,0.00,VWS V14.00,2013-01-17 14:04:00,
2013-01-17 06:09:00,56.2,15.7,30.25,NNE,22,8.0,9.0,20,0.00,,---,0.00,VWS V14.00,2013-01-17 14:09:00,
2013-01-17 06:14:00,56.7,16.1,30.25,NNE,22,6.0,8.0,20,0.00,,---,0.00,VWS V14.00,2013-01-17 14:14:00,
2013-01-17 06:19:00,56.6,16.0,30.25,NNE,22,3.0,13.0,20,0.00,,---,0.00,VWS V14.00,2013-01-17 14:19:00,
2013-01-17 06:24:00,56.8,15.0,30.25,NNE,27,5.0,21.0,19,0.00,,---,0.00,VWS V14.00,2013-01-17 14:24:00,
2013-01-17 06:29:00,57.7,14.5,30.25,NNE,17,5.0,26.0,18,0.00,,---,0.00,VWS V14.00,2013-01-17 14:29:00,
2013-01-17 06:34:00,58.3,15.0,30.24,North,9,14.0,23.0,18,0.00,,---,0.00,VWS V14.00,2013-01-17 14:34:00,
2013-01-17 06:39:00,58.4,15.1,30.25,NNW,331,12.0,16.0,18,0.00,,---,0.00,VWS V14.00,2013-01-17 14:39:00,
2013-01-17 06:44:00,58.2,16.2,30.25,NNW,332,5.0,15.0,19,0.00,,---,0.00,VWS V14.00,2013-01-17 14:44:00,
2013-01-17 06:49:00,57.5,14.4,30.25,NNW,333,7.0,13.0,18,0.00,,---,0.00,VWS V14.00,2013-01-17 14:49:00,
2013-01-17 06:54:00,57.5,14.4,30.25,North,360,6.0,18.0,18,0.00,,---,0.00,VWS V14.00,2013-01-17 14:54:00,
2013-01-17 06:59:00,57.6,14.4,30.26,NNW,335,7.0,13.0,18,0.00,,---,0.00,VWS V14.00,2013-01-17 14:59:00,
2013-01-17 07:04:00,58.1,14.8,30.26,NE,34,8.0,19.0,18,0.00,,---,0.00,VWS V14.00,2013-01-17 15:04:00,
2013-01-17 07:09:00,58.9,14.2,30.26,NNW,346,4.0,18.0,17,0.00,,---,0.00,VWS V14.00,2013-01-17 15:09:00,
2013-01-17 07:14:00,59.5,14.7,30.26,North,5,11.0,19.0,17,0.00,,---,0.00,VWS V14.00,2013-01-17 15:14:00,
2013-01-17 07:19:00,59.3,13.1,30.25,NNE,20,14.0,30.0,16,0.00,,---,0.00,VWS V14.00,2013-01-17 15:19:00,
2013-01-17 07:24:00,60.4,14.0,30.26,North,5,27.0,30.0,16,0.00,,---,0.00,VWS V14.00,2013-01-17 15:24:00,
2013-01-17 07:29:00,60.5,14.1,30.26,North,350,13.0,18.0,16,0.00,,---,0.00,VWS V14.00,2013-01-17 15:29:00,
2013-01-17 07:34:00,60.6,14.2,30.26,NNW,348,22.0,24.0,16,0.00,,---,0.00,VWS V14.00,2013-01-17 15:34:00,
2013-01-17 07:39:00,60.9,13.0,30.26,NNE,13,12.0,23.0,15,0.00,,---,0.00,VWS V14.00,2013-01-17 15:39:00,
2013-01-17 07:44:00,61.3,13.3,30.27,North,5,24.0,31.0,15,0.00,,---,0.00,VWS V14.00,2013-01-17 15:44:00,
2013-01-17 07:49:00,60.1,13.8,30.27,WNW,302,9.0,28.0,16,0.00,,---,0.00,VWS V14.00,2013-01-17 15:49:00,
2013-01-17 07:54:00,60.0,15.1,30.27,NNW,335,10.0,18.0,17,0.00,,---,0.00,VWS V14.00,2013-01-17 15:54:00,
2013-01-17 07:59:00,58.9,15.5,30.27,NW,326,6.0,15.0,18,0.00,,---,0.00,VWS V14.00,2013-01-17 15:59:00,
2013-01-17 08:04:00,59.7,13.5,30.27,NNW,340,8.0,18.0,16,0.00,,---,0.00,VWS V14.00,2013-01-17 16:04:00,
2013-01-17 08:09:00,61.2,13.2,30.27,NNE,22,9.0,24.0,15,0.00,,---,0.00,VWS V14.00,2013-01-17 16:09:00,
2013-01-17 08:14:00,61.5,13.4,30.27,NNE,32,6.0,24.0,15,0.00,,---,0.00,VWS V14.00,2013-01-17 16:14:00,
2013-01-17 08:19:00,61.8,12.1,30.27,NE,42,15.0,29.0,14,0.00,,---,0.00,VWS V14.00,2013-01-17 16:19:00,
2013-01-17 08:24:00,62.3,12.5,30.28,NE,46,17.0,27.0,14,0.00,,---,0.00,VWS V14.00,2013-01-17 16:24:00,
2013-01-17 08:29:00,62.6,12.8,30.28,NNE,26,16.0,32.0,14,0.00,,---,0.00,VWS V14.00,2013-01-17 16:29:00,
2013-01-17 08:34:00,62.9,13.0,30.28,NE,38,20.0,30.0,14,0.00,,---,0.00,VWS V14.00,2013-01-17 16:34:00,
2013-01-17 08:40:00,63.0,13.1,30.28,NNE,26,23.0,25.0,14,0.00,,---,0.00,VWS V14.00,2013-01-17 16:40:00,
2013-01-17 08:45:00,63.4,11.7,30.28,NNE,20,6.0,23.0,13,0.00,,---,0.00,VWS V14.00,2013-01-17 16:45:00,
2013-01-17 08:50:00,63.8,12.0,30.28,NNE,22,10.0,18.0,13,0.00,,---,0.00,VWS V14.00,2013-01-17 16:50:00,
2013-01-17 08:55:00,64.0,12.2,30.29,NNW,348,15.0,22.0,13,0.00,,---,0.00,VWS V14.00,2013-01-17 16:55:00,
2013-01-17 09:00:00,64.0,12.2,30.29,North,355,10.0,19.0,13,0.00,,---,0.00,VWS V14.00,2013-01-17 17:00:00,
2013-01-17 09:05:00,64.0,12.2,30.29,North,351,7.0,17.0,13,0.00,,---,0.00,VWS V14.00,2013-01-17 17:05:00,
2013-01-17 09:10:00,64.0,12.2,30.29,NNW,344,11.0,22.0,13,0.00,,---,0.00,VWS V14.00,2013-01-17 17:10:00,
2013-01-17 09:15:00,64.1,12.3,30.29,NNW,347,9.0,20.0,13,0.00,,---,0.00,VWS V14.00,2013-01-17 17:15:00,
2013-01-17 09:20:00,64.5,12.6,30.29,North,355,9.0,15.0,13,0.00,,---,0.00,VWS V14.00,2013-01-17 17:20:00,
2013-01-17 09:25:00,64.8,12.8,30.29,North,355,10.0,11.0,13,0.00,,---,0.00,VWS V14.00,2013-01-17 17:25:00,
2013-01-17 09:30:00,64.9,12.9,30.29,North,5,6.0,13.0,13,0.00,,---,0.00,VWS V14.00,2013-01-17 17:30:00,
2013-01-17 09:35:00,65.3,13.2,30.29,North,5,5.0,8.0,13,0.00,,---,0.00,VWS V14.00,2013-01-17 17:35:00,
2013-01-17 09:40:00,65.6,11.6,30.29,North,5,3.0,10.0,12,0.00,,---,0.00,VWS V14.00,2013-01-17 17:40:00,
2013-01-17 09:45:00,65.6,11.6,30.29,North,10,5.0,9.0,12,0.00,,---,0.00,VWS V14.00,2013-01-17 17:45:00,
2013-01-17 09:50:00,65.8,11.8,30.29,NNE,32,8.0,11.0,12,0.00,,---,0.00,VWS V14.00,2013-01-17 17:50:00,
2013-01-17 09:55:00,65.9,11.9,30.29,NNE,32,6.0,8.0,12,0.00,,---,0.00,VWS V14.00,2013-01-17 17:55:00,
2013-01-17 10:00:00,66.2,12.1,30.29,NNE,32,3.0,9.0,12,0.00,,---,0.00,VWS V14.00,2013-01-17 18:00:00,
2013-01-17 10:05:00,66.4,12.3,30.28,NNE,32,4.0,8.0,12,0.00,,---,0.00,VWS V14.00,2013-01-17 18:05:00,
2013-01-17 10:10:00,66.6,12.4,30.28,NE,42,4.0,12.0,12,0.00,,---,0.00,VWS V14.00,2013-01-17 18:10:00,
2013-01-17 10:15:00,66.8,12.6,30.28,NE,53,6.0,11.0,12,0.00,,---,0.00,VWS V14.00,2013-01-17 18:15:00,
2013-01-17 10:20:00,67.0,14.6,30.28,NE,53,4.0,10.0,13,0.00,,---,0.00,VWS V14.00,2013-01-17 18:20:00,
2013-01-17 10:25:00,67.2,14.7,30.28,ENE,70,3.0,14.0,13,0.00,,---,0.00,VWS V14.00,2013-01-17 18:25:00,
2013-01-17 10:30:00,67.4,14.9,30.27,ENE,70,11.0,11.0,13,0.00,,---,0.00,VWS V14.00,2013-01-17 18:30:00,
2013-01-17 10:35:00,67.7,13.3,30.27,ENE,70,7.0,11.0,12,0.00,,---,0.00,VWS V14.00,2013-01-17 18:35:00,
2013-01-17 10:40:00,67.7,13.3,30.27,East,80,7.0,14.0,12,0.00,,---,0.00,VWS V14.00,2013-01-17 18:40:00,
2013-01-17 10:45:00,67.6,13.2,30.26,East,88,7.0,14.0,12,0.00,,---,0.00,VWS V14.00,2013-01-17 18:45:00,
2013-01-17 10:50:00,67.5,13.1,30.26,South,173,3.0,12.0,12,0.00,,---,0.00,VWS V14.00,2013-01-17 18:50:00,
2013-01-17 10:55:00,67.8,13.4,30.26,South,172,5.0,14.0,12,0.00,,---,0.00,VWS V14.00,2013-01-17 18:55:00,
2013-01-17 11:00:00,67.7,13.3,30.26,South,172,4.0,11.0,12,0.00,,---,0.00,VWS V14.00,2013-01-17 19:00:00,
2013-01-17 11:05:00,67.9,13.4,30.25,South,172,9.0,9.0,12,0.00,,---,0.00,VWS V14.00,2013-01-17 19:05:00,
2013-01-17 11:10:00,67.6,13.2,30.25,South,173,4.0,12.0,12,0.00,,---,0.00,VWS V14.00,2013-01-17 19:10:00,
2013-01-17 11:15:00,67.9,13.4,30.25,South,173,4.0,9.0,12,0.00,,---,0.00,VWS V14.00,2013-01-17 19:15:00,
2013-01-17 11:20:00,67.9,13.4,30.24,South,173,3.0,10.0,12,0.00,,---,0.00,VWS V14.00,2013-01-17 19:20:00,
2013-01-17 11:25:00,67.9,13.4,30.24,South,173,2.0,6.0,12,0.00,,---,0.00,VWS V14.00,2013-01-17 19:25:00,
2013-01-17 11:30:00,68.3,13.8,30.24,ENE,77,4.0,22.0,12,0.00,,---,0.00,VWS V14.00,2013-01-17 19:30:00,
2013-01-17 11:35:00,68.7,14.1,30.23,NE,54,21.0,21.0,12,0.00,,---,0.00,VWS V14.00,2013-01-17 19:35:00,
2013-01-17 11:40:00,69.0,14.3,30.23,NNE,32,4.0,25.0,12,0.00,,---,0.00,VWS V14.00,2013-01-17 19:40:00,
2013-01-17 11:45:00,69.4,14.6,30.22,NNE,13,19.0,24.0,12,0.00,,---,0.00,VWS V14.00,2013-01-17 19:45:00,
2013-01-17 11:50:00,69.0,14.3,30.22,NE,38,8.0,26.0,12,0.00,,---,0.00,VWS V14.00,2013-01-17 19:50:00,
2013-01-17 11:55:00,68.9,14.2,30.22,NE,39,8.0,23.0,12,0.00,,---,0.00,VWS V14.00,2013-01-17 19:55:00,
2013-01-17 12:00:00,69.3,14.6,30.21,NE,55,16.0,19.0,12,0.00,,---,0.00,VWS V14.00,2013-01-17 20:00:00,
2013-01-17 12:05:00,69.2,14.5,30.21,ENE,59,11.0,26.0,12,0.00,,---,0.00,VWS V14.00,2013-01-17 20:05:00,
2013-01-17 12:10:00,69.4,14.6,30.20,NE,50,6.0,24.0,12,0.00,,---,0.00,VWS V14.00,2013-01-17 20:10:00,
2013-01-17 12:15:00,69.6,14.8,30.20,NNW,340,14.0,20.0,12,0.00,,---,0.00,VWS V14.00,2013-01-17 20:15:00,
2013-01-17 12:20:00,69.7,12.9,30.20,ENE,66,10.0,26.0,11,0.00,,---,0.00,VWS V14.00,2013-01-17 20:20:00,
2013-01-17 12:25:00,69.8,13.0,30.20,ENE,60,8.0,14.0,11,0.00,,---,0.00,VWS V14.00,2013-01-17 20:25:00,
2013-01-17 12:30:00,69.7,12.9,30.20,NE,50,8.0,16.0,11,0.00,,---,0.00,VWS V14.00,2013-01-17 20:30:00,
2013-01-17 12:35:00,70.0,13.1,30.19,NE,51,8.0,19.0,11,0.00,,---,0.00,VWS V14.00,2013-01-17 20:35:00,
2013-01-17 12:40:00,70.0,13.1,30.19,ENE,59,4.0,14.0,11,0.00,,---,0.00,VWS V14.00,2013-01-17 20:40:00,
2013-01-17 12:45:00,70.0,13.1,30.19,ENE,59,4.0,13.0,11,0.00,,---,0.00,VWS V14.00,2013-01-17 20:45:00,
2013-01-17 12:50:00,70.0,13.1,30.18,NE,40,13.0,19.0,11,0.00,,---,0.00,VWS V14.00,2013-01-17 20:50:00,
2013-01-17 12:55:00,70.4,13.4,30.18,NE,40,14.0,14.0,11,0.00,,---,0.00,VWS V14.00,2013-01-17 20:55:00,
2013-01-17 13:00:00,70.4,13.4,30.18,NNW,338,15.0,18.0,11,0.00,,---,0.00,VWS V14.00,2013-01-17 21:00:00,
2013-01-17 13:05:00,70.4,13.4,30.18,NNW,335,4.0,10.0,11,0.00,,---,0.00,VWS V14.00,2013-01-17 21:05:00,
2013-01-17 13:10:00,70.6,13.6,30.17,NE,35,12.0,18.0,11,0.00,,---,0.00,VWS V14.00,2013-01-17 21:10:00,
2013-01-17 13:15:00,70.9,13.8,30.17,NE,40,8.0,21.0,11,0.00,,---,0.00,VWS V14.00,2013-01-17 21:15:00,
2013-01-17 13:20:00,70.9,13.8,30.17,NE,45,13.0,17.0,11,0.00,,---,0.00,VWS V14.00,2013-01-17 21:20:00,
2013-01-17 13:25:00,70.9,13.8,30.17,NE,43,4.0,24.0,11,0.00,,---,0.00,VWS V14.00,2013-01-17 21:25:00,
2013-01-17 13:30:00,71.1,14.0,30.16,NNE,18,10.0,22.0,11,0.00,,---,0.00,VWS V14.00,2013-01-17 21:30:00,
2013-01-17 13:35:00,71.1,14.0,30.16,NNE,17,5.0,16.0,11,0.00,,---,0.00,VWS V14.00,2013-01-17 21:35:00,
2013-01-17 13:40:00,70.9,13.8,30.16,North,9,8.0,16.0,11,0.00,,---,0.00,VWS V14.00,2013-01-17 21:40:00,
2013-01-17 13:45:00,70.9,13.8,30.16,North,9,5.0,12.0,11,0.00,,---,0.00,VWS V14.00,2013-01-17 21:45:00,
2013-01-17 13:50:00,71.2,14.0,30.16,North,5,3.0,14.0,11,0.00,,---,0.00,VWS V14.00,2013-01-17 21:50:00,
2013-01-17 13:55:00,71.3,14.1,30.16,North,5,4.0,12.0,11,0.00,,---,0.00,VWS V14.00,2013-01-17 21:55:00,
2013-01-17 14:00:00,71.7,14.4,30.16,North,5,2.0,6.0,11,0.00,,---,0.00,VWS V14.00,2013-01-17 22:00:00,
2013-01-17 14:05:00,72.1,12.6,30.15,North,10,4.0,12.0,10,0.00,,---,0.00,VWS V14.00,2013-01-17 22:05:00,
2013-01-17 14:10:00,72.0,12.5,30.15,NNE,25,8.0,17.0,10,0.00,,---,0.00,VWS V14.00,2013-01-17 22:10:00,
2013-01-17 14:15:00,71.7,12.3,30.15,NNE,25,2.0,15.0,10,0.00,,---,0.00,VWS V14.00,2013-01-17 22:15:00,
2013-01-17 14:20:00,72.0,14.7,30.15,NNE,25,2.0,5.0,11,0.00,,---,0.00,VWS V14.00,2013-01-17 22:20:00,
2013-01-17 14:25:00,72.2,12.6,30.15,NNE,25,6.0,8.0,10,0.00,,---,0.00,VWS V14.00,2013-01-17 22:25:00,
2013-01-17 14:30:00,72.0,14.7,30.15,NNE,25,2.0,8.0,11,0.00,,---,0.00,VWS V14.00,2013-01-17 22:30:00,
2013-01-17 14:35:00,72.3,12.7,30.15,NNE,25,3.0,6.0,10,0.00,,---,0.00,VWS V14.00,2013-01-17 22:35:00,
2013-01-17 14:40:00,72.5,12.9,30.15,NNE,25,0.0,5.0,10,0.00,,---,0.00,VWS V14.00,2013-01-17 22:40:00,
2013-01-17 14:45:00,72.5,12.9,30.15,NNE,25,0.0,4.0,10,0.00,,---,0.00,VWS V14.00,2013-01-17 22:45:00,
2013-01-17 14:50:00,72.5,12.9,30.15,NNE,25,0.0,5.0,10,0.00,,---,0.00,VWS V14.00,2013-01-17 22:50:00,
2013-01-17 14:55:00,72.3,12.7,30.15,NNE,25,4.0,8.0,10,0.00,,---,0.00,VWS V14.00,2013-01-17 22:55:00,
2013-01-17 15:00:00,71.9,14.6,30.15,WNW,294,9.0,16.0,11,0.00,,---,0.00,VWS V14.00,2013-01-17 23:00:00,
2013-01-17 15:05:00,71.7,14.4,30.15,WNW,288,7.0,13.0,11,0.00,,---,0.00,VWS V14.00,2013-01-17 23:05:00,
2013-01-17 15:10:00,71.9,14.6,30.15,WNW,288,6.0,12.0,11,0.00,,---,0.00,VWS V14.00,2013-01-17 23:10:00,
2013-01-17 15:15:00,71.9,14.6,30.15,WNW,288,7.0,12.0,11,0.00,,---,0.00,VWS V14.00,2013-01-17 23:15:00,
2013-01-17 15:20:00,71.7,14.4,30.15,WNW,288,6.0,14.0,11,0.00,,---,0.00,VWS V14.00,2013-01-17 23:20:00,
2013-01-17 15:25:00,71.6,14.4,30.15,West,278,12.0,18.0,11,0.00,,---,0.00,VWS V14.00,2013-01-17 23:25:00,
2013-01-17 15:30:00,71.2,14.0,30.15,West,277,6.0,14.0,11,0.00,,---,0.00,VWS V14.00,2013-01-17 23:30:00,
2013-01-17 15:35:00,71.0,13.9,30.15,West,276,9.0,15.0,11,0.00,,---,0.00,VWS V14.00,2013-01-17 23:35:00,
2013-01-17 15:40:00,71.2,16.0,30.15,West,276,8.0,13.0,12,0.00,,---,0.00,VWS V14.00,2013-01-17 23:40:00,
2013-01-17 15:45:00,71.0,13.9,30.15,West,275,12.0,16.0,11,0.00,,---,0.00,VWS V14.00,2013-01-17 23:45:00,
2013-01-17 15:50:00,70.9,13.8,30.16,West,275,6.0,12.0,11,0.00,,---,0.00,VWS V14.00,2013-01-17 23:50:00,
2013-01-17 15:55:00,70.8,13.7,30.16,West,275,3.0,10.0,11,0.00,,---,0.00,VWS V14.00,2013-01-17 23:55:00,
2013-01-17 16:00:00,70.8,13.7,30.16,West,275,6.0,9.0,11,0.00,,---,0.00,VWS V14.00,2013-01-18 00:00:00,
2013-01-17 16:05:00,70.7,13.6,30.16,West,275,4.0,11.0,11,0.00,,---,0.00,VWS V14.00,2013-01-18 00:05:00,
2013-01-17 16:10:00,70.6,13.6,30.16,West,275,6.0,10.0,11,0.00,,---,0.00,VWS V14.00,2013-01-18 00:10:00,
2013-01-17 16:15:00,70.5,13.5,30.16,West,275,2.0,10.0,11,0.00,,---,0.00,VWS V14.00,2013-01-18 00:15:00,
2013-01-17 16:20:00,70.3,15.3,30.16,West,275,6.0,10.0,12,0.00,,---,0.00,VWS V14.00,2013-01-18 00:20:00,
2013-01-17 16:25:00,70.1,15.2,30.16,West,275,4.0,9.0,12,0.00,,---,0.00,VWS V14.00,2013-01-18 00:25:00,
2013-01-17 16:30:00,69.9,15.0,30.16,West,275,2.0,8.0,12,0.00,,---,0.00,VWS V14.00,2013-01-18 00:30:00,
2013-01-17 16:35:00,69.7,14.9,30.16,West,275,0.0,6.0,12,0.00,,---,0.00,VWS V14.00,2013-01-18 00:35:00,
2013-01-17 16:40:00,69.5,14.7,30.17,West,275,1.0,5.0,12,0.00,,---,0.00,VWS V14.00,2013-01-18 00:40:00,
2013-01-17 16:46:00,68.9,14.2,30.17,West,275,0.0,4.0,12,0.00,,---,0.00,VWS V14.00,2013-01-18 00:46:00,
2013-01-17 16:51:00,68.2,13.7,30.17,West,275,2.0,6.0,12,0.00,,---,0.00,VWS V14.00,2013-01-18 00:51:00,
2013-01-17 16:56:00,67.6,13.2,30.17,West,275,5.0,5.0,12,0.00,,---,0.00,VWS V14.00,2013-01-18 00:56:00,
2013-01-17 17:01:00,67.0,12.8,30.17,West,275,4.0,8.0,12,0.00,,---,0.00,VWS V14.00,2013-01-18 01:01:00,
2013-01-17 17:06:00,66.5,12.4,30.17,West,275,3.0,6.0,12,0.00,,---,0.00,VWS V14.00,2013-01-18 01:06:00,
2013-01-17 17:11:00,65.9,13.7,30.17,West,275,2.0,4.0,13,0.00,,---,0.00,VWS V14.00,2013-01-18 01:11:00,
2013-01-17 17:16:00,65.3,13.2,30.18,West,275,3.0,5.0,13,0.00,,---,0.00,VWS V14.00,2013-01-18 01:16:00,
2013-01-17 17:21:00,64.7,12.8,30.18,West,275,2.0,5.0,13,0.00,,---,0.00,VWS V14.00,2013-01-18 01:21:00,
2013-01-17 17:26:00,64.6,12.7,30.18,West,275,2.0,4.0,13,0.00,,---,0.00,VWS V14.00,2013-01-18 01:26:00,
2013-01-17 17:31:00,64.1,12.3,30.18,West,275,6.0,6.0,13,0.00,,---,0.00,VWS V14.00,2013-01-18 01:31:00,
2013-01-17 17:36:00,63.6,11.9,30.18,West,276,9.0,10.0,13,0.00,,---,0.00,VWS V14.00,2013-01-18 01:36:00,
2013-01-17 17:41:00,63.5,11.8,30.18,West,276,4.0,10.0,13,0.00,,---,0.00,VWS V14.00,2013-01-18 01:41:00,
2013-01-17 17:46:00,63.4,11.7,30.19,West,276,5.0,9.0,13,0.00,,---,0.00,VWS V14.00,2013-01-18 01:46:00,
2013-01-17 17:51:00,63.4,13.4,30.19,West,277,6.0,12.0,14,0.00,,---,0.00,VWS V14.00,2013-01-18 01:51:00,
2013-01-17 17:56:00,63.3,13.3,30.19,West,277,4.0,8.0,14,0.00,,---,0.00,VWS V14.00,2013-01-18 01:56:00,
2013-01-17 18:01:00,63.3,13.3,30.19,WNW,284,7.0,14.0,14,0.00,,---,0.00,VWS V14.00,2013-01-18 02:01:00,
2013-01-17 18:06:00,63.4,11.7,30.19,NW,315,9.0,12.0,13,0.00,,---,0.00,VWS V14.00,2013-01-18 02:06:00,
2013-01-17 18:11:00,63.1,13.2,30.19,NW,325,4.0,12.0,14,0.00,,---,0.00,VWS V14.00,2013-01-18 02:11:00,
2013-01-17 18:16:00,62.8,12.9,30.19,NNW,333,8.0,15.0,14,0.00,,---,0.00,VWS V14.00,2013-01-18 02:16:00,
2013-01-17 18:21:00,63.2,13.2,30.19,North,355,12.0,18.0,14,0.00,,---,0.00,VWS V14.00,2013-01-18 02:21:00,
2013-01-17 18:26:00,62.8,12.9,30.19,North,355,3.0,12.0,14,0.00,,---,0.00,VWS V14.00,2013-01-18 02:26:00,
2013-01-17 18:31:00,62.5,12.7,30.19,North,355,8.0,12.0,14,0.00,,---,0.00,VWS V14.00,2013-01-18 02:31:00,
2013-01-17 18:36:00,61.9,12.2,30.19,North,355,8.0,11.0,14,0.00,,---,0.00,VWS V14.00,2013-01-18 02:36:00,
2013-01-17 18:41:00,61.7,12.1,30.19,North,355,8.0,16.0,14,0.00,,---,0.00,VWS V14.00,2013-01-18 02:41:00,
2013-01-17 18:46:00,62.5,12.7,30.19,North,5,11.0,18.0,14,0.00,,---,0.00,VWS V14.00,2013-01-18 02:46:00,
2013-01-17 18:51:00,62.3,12.5,30.19,North,5,8.0,12.0,14,0.00,,---,0.00,VWS V14.00,2013-01-18 02:51:00,
2013-01-17 18:56:00,62.3,12.5,30.19,North,5,4.0,14.0,14,0.00,,---,0.00,VWS V14.00,2013-01-18 02:56:00,
2013-01-17 19:01:00,62.1,12.4,30.20,North,5,8.0,14.0,14,0.00,,---,0.00,VWS V14.00,2013-01-18 03:01:00,
2013-01-17 19:06:00,62.1,12.4,30.20,North,5,4.0,15.0,14,0.00,,---,0.00,VWS V14.00,2013-01-18 03:06:00,
2013-01-17 19:11:00,62.6,12.8,30.19,NNE,21,9.0,20.0,14,0.00,,---,0.00,VWS V14.00,2013-01-18 03:11:00,
2013-01-17 19:16:00,62.9,13.0,30.19,NE,38,11.0,25.0,14,0.00,,---,0.00,VWS V14.00,2013-01-18 03:16:00,
2013-01-17 19:21:00,63.0,13.1,30.19,NNE,30,12.0,19.0,14,0.00,,---,0.00,VWS V14.00,2013-01-18 03:21:00,
2013-01-17 19:26:00,62.8,12.9,30.19,NNE,30,8.0,24.0,14,0.00,,---,0.00,VWS V14.00,2013-01-18 03:26:00,
2013-01-17 19:31:00,62.7,12.8,30.19,NNE,26,12.0,20.0,14,0.00,,---,0.00,VWS V14.00,2013-01-18 03:31:00,
2013-01-17 19:36:00,62.7,12.8,30.19,NNE,30,10.0,26.0,14,0.00,,---,0.00,VWS V14.00,2013-01-18 03:36:00,
2013-01-17 19:41:00,62.7,12.8,30.19,NNE,30,15.0,26.0,14,0.00,,---,0.00,VWS V14.00,2013-01-18 03:41:00,
2013-01-17 19:46:00,62.5,12.7,30.19,NE,34,19.0,22.0,14,0.00,,---,0.00,VWS V14.00,2013-01-18 03:46:00,
2013-01-17 19:51:00,62.5,12.7,30.19,NNE,25,9.0,24.0,14,0.00,,---,0.00,VWS V14.00,2013-01-18 03:51:00,
2013-01-17 19:56:00,62.3,12.5,30.19,NNE,33,8.0,21.0,14,0.00,,---,0.00,VWS V14.00,2013-01-18 03:56:00,
2013-01-17 20:01:00,62.3,12.5,30.19,NE,34,11.0,20.0,14,0.00,,---,0.00,VWS V14.00,2013-01-18 04:01:00,
2013-01-17 20:06:00,62.3,12.5,30.19,NE,37,19.0,22.0,14,0.00,,---,0.00,VWS V14.00,2013-01-18 04:06:00,
2013-01-17 20:11:00,62.3,12.5,30.19,NE,38,7.0,22.0,14,0.00,,---,0.00,VWS V14.00,2013-01-18 04:11:00,
2013-01-17 20:16:00,62.3,12.5,30.19,NE,34,10.0,21.0,14,0.00,,---,0.00,VWS V14.00,2013-01-18 04:16:00,
2013-01-17 20:21:00,62.2,12.4,30.19,NNE,32,18.0,19.0,14,0.00,,---,0.00,VWS V14.00,2013-01-18 04:21:00,
2013-01-17 20:26:00,62.2,12.4,30.19,NE,36,8.0,21.0,14,0.00,,---,0.00,VWS V14.00,2013-01-18 04:26:00,
2013-01-17 20:31:00,62.0,12.3,30.19,NE,36,3.0,20.0,14,0.00,,---,0.00,VWS V14.00,2013-01-18 04:31:00,
2013-01-17 20:36:00,61.8,12.1,30.19,NNE,32,10.0,19.0,14,0.00,,---,0.00,VWS V14.00,2013-01-18 04:36:00,
2013-01-17 20:41:00,61.6,12.0,30.19,NNE,31,14.0,22.0,14,0.00,,---,0.00,VWS V14.00,2013-01-18 04:41:00,
2013-01-17 20:46:00,61.8,12.1,30.19,NE,43,13.0,19.0,14,0.00,,---,0.00,VWS V14.00,2013-01-18 04:46:00,
2013-01-17 20:51:00,61.8,12.1,30.19,NE,47,7.0,14.0,14,0.00,,---,0.00,VWS V14.00,2013-01-18 04:51:00,
2013-01-17 20:56:00,61.2,11.6,30.19,NE,47,6.0,8.0,14,0.00,,---,0.00,VWS V14.00,2013-01-18 04:56:00,
2013-01-17 21:01:00,61.1,13.1,30.19,NE,47,6.0,9.0,15,0.00,,---,0.00,VWS V14.00,2013-01-18 05:01:00,
2013-01-17 21:06:00,60.8,12.9,30.19,NE,47,6.0,7.0,15,0.00,,---,0.00,VWS V14.00,2013-01-18 05:06:00,
2013-01-17 21:11:00,60.8,12.9,30.19,NE,47,3.0,7.0,15,0.00,,---,0.00,VWS V14.00,2013-01-18 05:11:00,
2013-01-17 21:16:00,60.5,12.6,30.19,NE,47,4.0,6.0,15,0.00,,---,0.00,VWS V14.00,2013-01-18 05:16:00,
2013-01-17 21:21:00,60.6,12.7,30.19,NE,47,1.0,6.0,15,0.00,,---,0.00,VWS V14.00,2013-01-18 05:21:00,
2013-01-17 21:26:00,60.3,12.5,30.19,NE,47,0.0,3.0,15,0.00,,---,0.00,VWS V14.00,2013-01-18 05:26:00,
2013-01-17 21:31:00,59.4,11.8,30.19,NE,47,5.0,6.0,15,0.00,,---,0.00,VWS V14.00,2013-01-18 05:31:00,
2013-01-17 21:36:00,59.1,13.0,30.19,NE,47,4.0,5.0,16,0.00,,---,0.00,VWS V14.00,2013-01-18 05:36:00,
2013-01-17 21:41:00,59.4,13.2,30.19,NE,47,3.0,4.0,16,0.00,,---,0.00,VWS V14.00,2013-01-18 05:41:00,
2013-01-17 21:46:00,59.5,13.3,30.19,NE,47,4.0,5.0,16,0.00,,---,0.00,VWS V14.00,2013-01-18 05:46:00,
2013-01-17 21:51:00,59.4,11.8,30.19,NE,47,4.0,4.0,15,0.00,,---,0.00,VWS V14.00,2013-01-18 05:51:00,
2013-01-17 21:56:00,58.4,12.4,30.19,NE,47,6.0,6.0,16,0.00,,---,0.00,VWS V14.00,2013-01-18 05:56:00,
2013-01-17 22:01:00,57.3,12.9,30.19,NE,47,6.0,6.0,17,0.00,,---,0.00,VWS V14.00,2013-01-18 06:01:00,
2013-01-17 22:06:00,56.6,12.3,30.19,NE,47,4.0,4.0,17,0.00,,---,0.00,VWS V14.00,2013-01-18 06:06:00,
2013-01-17 22:11:00,56.1,11.9,30.19,NE,47,2.0,2.0,17,0.00,,---,0.00,VWS V14.00,2013-01-18 06:11:00,
2013-01-17 22:17:00,56.0,13.1,30.19,NE,47,5.0,6.0,18,0.00,,---,0.00,VWS V14.00,2013-01-18 06:17:00,
2013-01-17 22:22:00,56.0,13.1,30.19,NE,47,4.0,6.0,18,0.00,,---,0.00,VWS V14.00,2013-01-18 06:22:00,
2013-01-17 22:27:00,56.4,13.4,30.19,NE,47,4.0,4.0,18,0.00,,---,0.00,VWS V14.00,2013-01-18 06:27:00,
2013-01-17 22:32:00,56.6,12.3,30.19,NE,47,6.0,6.0,17,0.00,,---,0.00,VWS V14.00,2013-01-18 06:32:00,
2013-01-17 22:37:00,57.0,12.6,30.19,NE,47,6.0,8.0,17,0.00,,---,0.00,VWS V14.00,2013-01-18 06:37:00,
2013-01-17 22:42:00,57.7,13.2,30.19,NE,47,8.0,11.0,17,0.00,,---,0.00,VWS V14.00,2013-01-18 06:42:00,
2013-01-17 22:47:00,57.5,13.1,30.19,NE,47,5.0,5.0,17,0.00,,---,0.00,VWS V14.00,2013-01-18 06:47:00,
2013-01-17 22:52:00,57.2,12.8,30.19,NE,47,6.0,10.0,17,0.00,,---,0.00,VWS V14.00,2013-01-18 06:52:00,
2013-01-17 22:57:00,57.8,13.3,30.19,NE,44,14.0,14.0,17,0.00,,---,0.00,VWS V14.00,2013-01-18 06:57:00,
2013-01-17 23:02:00,58.0,13.4,30.19,NE,40,6.0,12.0,17,0.00,,---,0.00,VWS V14.00,2013-01-18 07:02:00,
2013-01-17 23:07:00,58.4,13.8,30.19,NE,36,12.0,14.0,17,0.00,,---,0.00,VWS V14.00,2013-01-18 07:07:00,
2013-01-17 23:12:00,58.5,13.9,30.19,NE,35,11.0,15.0,17,0.00,,---,0.00,VWS V14.00,2013-01-18 07:12:00,
2013-01-17 23:17:00,58.6,13.9,30.19,NE,34,9.0,12.0,17,0.00,,---,0.00,VWS V14.00,2013-01-18 07:17:00,
2013-01-17 23:22:00,58.9,14.2,30.19,NE,34,7.0,8.0,17,0.00,,---,0.00,VWS V14.00,2013-01-18 07:22:00,
2013-01-17 23:27:00,59.2,14.4,30.19,NE,34,12.0,12.0,17,0.00,,---,0.00,VWS V14.00,2013-01-18 07:27:00,
2013-01-17 23:32:00,59.3,14.5,30.19,NE,34,8.0,11.0,17,0.00,,---,0.00,VWS V14.00,2013-01-18 07:32:00,
2013-01-17 23:37:00,59.4,13.2,30.19,NE,34,10.0,12.0,16,0.00,,---,0.00,VWS V14.00,2013-01-18 07:37:00,
2013-01-17 23:42:00,59.6,13.4,30.19,NE,34,5.0,10.0,16,0.00,,---,0.00,VWS V14.00,2013-01-18 07:42:00,
2013-01-17 23:47:00,59.7,13.5,30.19,NE,34,7.0,11.0,16,0.00,,---,0.00,VWS V14.00,2013-01-18 07:47:00,
2013-01-17 23:52:00,59.7,13.5,30.19,NE,34,6.0,8.0,16,0.00,,---,0.00,VWS V14.00,2013-01-18 07:52:00,
2013-01-17 23:57:00,59.5,14.7,30.19,NE,34,5.0,8.0,17,0.00,,---,0.00,VWS V14.00,2013-01-18 07:57:00,